{"data":{"norad_id":53919,"intl_designator":"2022-119AK","name":"STARLINK-5023","alt_names":[],"object_type":"PAYLOAD","status":"ACTIVE","operator":null,"country":"US","launch_date":"2022-09-24","launch_site_code":"AFETR","launch_vehicle":null,"mission":null,"orbit_class":"UNKNOWN","rcs_meters":null,"size_class":null,"mass_kg":null,"dimensions":null,"purposes":["comms"],"wikipedia_slug":null,"has_3d_model":false,"image_url":null,"decayed_at":null,"tle_current":{"epoch":"2026-05-24T19:03:59.965056Z","epoch_age_seconds":96405,"freshness":"FRESH","line1":"1 53919U 22119AK  26144.79444404  .00000884  00000+0  63265-4 0  9990","line2":"2 53919  53.2167 331.1160 0001424  91.5469 268.5689 15.14842102203336","mean_motion":15.14842102,"eccentricity":0.0001424,"inclination_deg":53.2167,"raan_deg":331.116,"arg_perigee_deg":91.5469,"mean_anomaly_deg":268.5689,"bstar":6.3265e-5,"rev_number":20333,"period_min":95.059412337353,"perigee_km":520.47546416926,"apogee_km":522.44046881572,"semimajor_km":6899.5949664925,"source":"CELESTRAK","updated_at":"2026-05-25T13:38:17.612986Z"}}}